Probability
55 45 42 48 45 39 26 26 23 23 23 19 19 19 23 19 19 16 6 10 10 6 6 3 3 6 0 0 0 0 0 0 0 0 0 0 0 0 0 0 0 3 3
55 48 48 42 48 35 29 19 23 23 23 19 19 19 19 16 16 13 6 13 10 10 6 3 3 3 3 0 0 0 0 0 0 0 0 0 0 0 3 0 0 3 3
48 42 52 42 45 32 29 32 26 26 23 23 16 16 19 13 16 13 13 13 13 10 3 3 3 0 0 0 0 0 0 0 0 0 0 0 0 0 0 0 0 0 3
35 39 39 45 35 29 32 26 23 23 23 26 19 13 19 13 10 13 16 10 13 13 6 0 3 0 0 0 0 0 0 0 0 0 0 0 0 0 0 0 0 0 0
26 32 39 35 35 32 29 23 16 19 19 19 13 10 10 6 6 3 13 13 13 13 6 0 0 0 0 0 0 0 0 0 0 0 0 0 0 0 0 0 0 0 0
26 29 29 23 29 32 26 19 19 16 16 19 10 3 3 0 0 3 6 10 10 3 6 3 0 0 0 0 0 0 0 0 0 0 0 0 0 0 0 0 0 0 0
19 23 19 19 29 29 26 19 23 19 16 16 10 6 3 0 0 0 3 3 3 0 3 3 0 0 0 0 0 0 0 0 0 0 0 0 0 0 0 0 0 0 0
19 19 19 16 19 26 19 16 13 16 13 13 13 10 3 0 0 0 0 3 0 0 0 0 0 0 0 0 0 0 0 0 0 0 0 0 0 0 0 0 0 0 0
19 16 19 16 19 19 13 13 13 16 13 13 10 10 10 3 0 0 0 0 0 0 0 0 0 0 0 0 0 0 0 0 0 0 0 0 0 0 0 0 0 0 0
26 19 16 16 16 16 13 13 13 16 16 13 13 13 10 6 3 0 0 0 0 0 0 0 0 0 0 0 0 0 0 0 0 0 0 0 0 0 0 0 0 0 0
26 23 19 16 13 19 13 13 13 16 16 16 13 13 13 10 3 0 0 0 0 0 0 0 3 0 0 0 0 0 0 0 0 0 0 0 0 0 0 0 0 0 0
13 19 16 19 13 16 13 13 13 16 16 19 16 16 13 13 10 6 3 0 0 0 0 3 3 3 0 0 3 3 3 3 3 0 0 0 0 0 0 0 0 0 0
10 10 19 19 23 13 13 13 16 13 13 16 19 19 19 16 19 3 3 3 3 3 3 3 3 6 6 3 6 3 3 3 3 3 3 0 0 0 0 0 0 0 0
13 10 10 10 16 13 13 13 13 10 10 13 16 16 16 16 16 6 3 3 3 3 3 3 3 3 3 3 3 3 3 3 3 0 0 0 0 0 0 0 0 0 0
23 13 6 10 10 10 13 13 16 10 13 13 13 10 10 13 10 3 3 3 3 3 3 3 3 3 3 3 3 3 3 3 0 0 0 3 0 0 0 0 0 0 0
19 19 16 10 13 10 10 13 13 13 13 16 10 10 10 10 6 6 3 3 3 3 3 3 3 3 3 3 3 3 3 3 0 0 0 0 0 0 0 0 0 0 0
19 26 23 19 13 13 10 10 13 13 10 13 13 10 10 10 6 6 6 6 3 3 3 3 3 3 3 0 0 0 0 0 0 0 0 0 0 0 0 0 0 0 0
26 29 19 16 13 10 10 13 16 16 13 13 13 10 10 13 6 6 6 3 3 3 0 0 0 0 0 0 0 0 0 0 0 0 0 0 0 0 0 0 0 0 0
26 26 23 23 19 13 10 3 10 16 10 10 13 10 10 10 10 6 6 0 0 0 0 0 0 0 0 0 0 0 0 0 0 0 0 0 0 0 0 0 0 0 0
19 23 19 26 19 13 6 10 10 3 6 3 3 0 3 3 6 6 3 0 0 0 0 0 0 0 0 0 0 0 0 0 0 0 0 0 0 0 0 0 0 0 0
16 13 10 10 16 16 10 10 6 6 6 3 0 0 3 6 6 3 0 0 0 0 0 0 0 0 0 0 0 0 0 0 0 0 0 0 0 0 0 0 0 0 0
10 13 10 16 10 10 10 10 6 3 6 3 6 3 3 6 3 0 0 0 0 0 0 0 0 0 0 0 0 0 0 0 0 0 0 0 0 0 0 0 0 0 0
3 6 6 6 6 3 3 0 0 0 6 0 0 0 0 0 0 0 0 0 0 0 0 0 0 0 0 0 0 0 0 0 0 0 0 0 0 0 0 0 0 0 0
3 3 3 3 0 0 0 0 0 3 0 0 0 0 0 0 0 0 0 0 0 0 0 0 0 0 0 0 0 0 0 0 0 0 0 0 0 0 0 0 0 0 0
3 3 0 0 0 0 0 0 0 0 0 0 0 0 0 0 0 0 0 0 0 0 0 0 0 0 0 0 0 0 0 0 0 0 0 0 0 0 0 0 0 0 0
0 0 0 0 0 0 0 0 0 0 0 0 0 0 0 0 0 0 0 0 0 0 0 0 0 0 0 0 0 0 0 0 0 0 0 0 0 0 0 0 0 0 0
Height
5853 5850 5847 5844 5841 5840 5839 5838 5838 5840 5841 5843 5845 5848 5851 5853 5856 5859 5863 5866 5868 5871 5873 5875 5877 5878 5880 5881 5882 5883 5883 5884 5885 5885 5886 5886 5886 5887 5887 5886 5886 5886 5886
5851 5847 5844 5841 5839 5837 5836 5836 5837 5839 5840 5842 5843 5846 5849 5852 5854 5857 5861 5864 5867 5869 5871 5874 5875 5877 5878 5880 5881 5882 5883 5883 5884 5885 5885 5886 5887 5886 5886 5886 5886 5886 5886
5849 5845 5842 5840 5838 5837 5836 5835 5836 5837 5838 5840 5841 5844 5846 5849 5852 5856 5859 5862 5865 5867 5869 5872 5874 5875 5877 5878 5879 5881 5882 5882 5883 5884 5885 5885 5885 5886 5886 5886 5886 5886 5886
5847 5844 5840 5839 5838 5836 5835 5835 5835 5836 5836 5838 5840 5842 5845 5848 5851 5853 5856 5860 5862 5865 5867 5870 5872 5873 5875 5876 5878 5879 5880 5881 5882 5883 5883 5884 5885 5885 5885 5885 5885 5885 5885
5845 5843 5840 5838 5836 5835 5833 5833 5833 5834 5835 5836 5838 5841 5843 5846 5849 5851 5854 5857 5860 5862 5865 5868 5870 5872 5873 5875 5876 5877 5879 5880 5881 5882 5882 5883 5883 5884 5884 5884 5884 5884 5884
5843 5841 5839 5837 5835 5833 5832 5831 5832 5832 5833 5834 5836 5839 5841 5844 5847 5849 5852 5855 5857 5860 5863 5865 5867 5869 5871 5872 5874 5875 5877 5878 5879 5880 5881 5881 5882 5882 5882 5882 5882 5882 5882
5841 5840 5838 5835 5834 5832 5831 5830 5830 5831 5831 5833 5834 5836 5839 5841 5844 5846 5849 5852 5854 5857 5860 5862 5865 5867 5868 5870 5872 5873 5874 5875 5877 5877 5878 5879 5879 5879 5879 5879 5879 5879 5879
5840 5839 5836 5834 5832 5830 5829 5829 5829 5829 5830 5831 5832 5834 5836 5838 5841 5843 5846 5849 5851 5854 5857 5859 5862 5864 5866 5867 5869 5870 5871 5872 5873 5874 5875 5875 5876 5876 5876 5876 5876 5876 5876
5838 5837 5835 5833 5831 5829 5828 5828 5828 5828 5829 5829 5830 5831 5833 5835 5838 5840 5843 5845 5848 5851 5854 5856 5858 5860 5862 5864 5865 5867 5868 5869 5870 5870 5871 5871 5872 5872 5872 5872 5872 5872 5871
5835 5835 5833 5832 5830 5829 5828 5828 5827 5827 5827 5828 5828 5829 5831 5833 5835 5838 5840 5843 5846 5848 5851 5853 5855 5857 5859 5860 5862 5863 5864 5865 5866 5867 5867 5867 5867 5867 5867 5867 5867 5867 5867
5834 5833 5832 5831 5830 5828 5827 5827 5826 5826 5826 5827 5827 5828 5829 5831 5833 5835 5838 5840 5843 5845 5848 5850 5852 5854 5855 5856 5858 5859 5860 5861 5862 5862 5862 5862 5862 5862 5862 5862 5861 5861 5861
5832 5832 5831 5830 5829 5828 5827 5826 5825 5825 5825 5825 5825 5826 5827 5829 5831 5833 5836 5838 5840 5842 5844 5847 5848 5850 5851 5853 5854 5855 5856 5856 5857 5857 5858 5857 5857 5857 5856 5856 5855 5854 5854
5830 5830 5830 5828 5828 5827 5826 5825 5824 5824 5824 5824 5824 5825 5826 5827 5829 5831 5833 5835 5837 5839 5841 5843 5844 5846 5847 5848 5849 5850 5851 5851 5852 5852 5852 5852 5851 5851 5850 5849 5848 5847 5846
5828 5828 5827 5827 5826 5826 5825 5824 5824 5823 5823 5823 5823 5824 5824 5825 5827 5828 5830 5832 5833 5835 5837 5839 5840 5842 5843 5844 5845 5845 5846 5846 5846 5846 5846 5845 5845 5844 5843 5842 5841 5839 5838
5826 5826 5826 5826 5825 5824 5824 5824 5823 5823 5822 5822 5822 5822 5823 5823 5825 5826 5827 5829 5830 5832 5833 5835 5836 5837 5838 5839 5840 5840 5840 5840 5840 5840 5840 5839 5838 5837 5836 5834 5833 5831 5829
5822 5822 5823 5823 5823 5822 5822 5822 5822 5821 5821 5821 5821 5821 5821 5821 5822 5823 5824 5825 5827 5828 5829 5830 5831 5832 5833 5834 5834 5835 5835 5834 5834 5834 5833 5832 5831 5829 5828 5826 5824 5822 5820
5819 5820 5820 5820 5820 5820 5820 5820 5819 5819 5819 5819 5819 5819 5819 5819 5820 5821 5821 5822 5823 5824 5825 5825 5826 5827 5828 5828 5829 5828 5828 5828 5827 5826 5825 5824 5823 5821 5819 5817 5815 5813 5810
5814 5814 5815 5814 5815 5816 5816 5817 5816 5816 5816 5816 5817 5817 5817 5817 5818 5818 5818 5819 5819 5820 5820 5821 5821 5822 5822 5822 5822 5821 5821 5820 5819 5818 5817 5816 5814 5812 5810 5807 5805 5802 5799
5807 5808 5809 5810 5810 5811 5812 5812 5812 5813 5813 5813 5814 5814 5814 5814 5814 5814 5814 5814 5814 5815 5815 5815 5815 5815 5816 5815 5815 5815 5814 5812 5811 5810 5808 5806 5804 5802 5800 5797 5794 5791 5788
5799 5800 5802 5803 5804 5806 5807 5807 5808 5808 5808 5809 5809 5809 5809 5810 5810 5810 5810 5809 5809 5810 5810 5810 5809 5809 5809 5808 5808 5807 5805 5804 5802 5801 5799 5796 5794 5791 5788 5785 5782 5779 5775
5792 5793 5795 5796 5798 5800 5802 5802 5802 5803 5804 5804 5804 5803 5804 5805 5805 5805 5805 5805 5805 5804 5804 5803 5803 5802 5801 5800 5799 5798 5796 5794 5792 5790 5788 5786 5783 5780 5777 5773 5769 5765 5761
5784 5786 5788 5789 5791 5794 5795 5795 5796 5798 5798 5799 5799 5798 5799 5800 5800 5799 5799 5799 5799 5798 5797 5796 5795 5794 5793 5792 5790 5788 5787 5785 5782 5780 5777 5774 5771 5768 5764 5760 5756 5751 5747
5776 5778 5781 5783 5785 5786 5788 5789 5790 5791 5792 5792 5792 5793 5793 5794 5794 5793 5793 5792 5792 5791 5789 5788 5787 5786 5784 5783 5781 5779 5777 5774 5772 5769 5766 5762 5758 5754 5750 5746 5741 5736 5731
5768 5770 5773 5775 5777 5778 5780 5781 5783 5784 5785 5785 5785 5786 5786 5786 5786 5786 5786 5785 5784 5783 5781 5780 5778 5777 5775 5773 5771 5769 5766 5763 5760 5757 5753 5749 5745 5741 5736 5731 5726 5721 5715
5761 5764 5766 5768 5769 5770 5772 5774 5775 5777 5778 5778 5779 5779 5778 5778 5778 5779 5778 5777 5776 5775 5773 5771 5769 5768 5766 5764 5761 5759 5756 5752 5749 5745 5741 5736 5732 5727 5721 5716 5710 5705 5699
5754 5756 5759 5761 5762 5763 5765 5767 5768 5769 5770 5770 5771 5771 5771 5771 5771 5770 5769 5768 5767 5766 5765 5762 5761 5758 5756 5753 5751 5747 5744 5740 5736 5732 5727 5722 5717 5712 5706 5700 5694 5688 5682
Wind_Speed
17 15 14 13 11 10 8 6 6 6 7 8 11 13 15 15 16 18 17 16 15 14 13 12 11 10 10 9 8 7 6 6 5 5 4 4 3 3 3 2 2 2 1
17 14 13 12 10 9 9 6 6 6 7 9 11 13 15 15 16 18 18 17 15 15 14 13 12 11 11 10 9 8 7 7 6 6 5 4 4 3 3 2 2 2 1
14 13 11 10 9 8 7 4 6 7 8 9 11 13 15 17 17 18 18 17 16 15 15 14 13 12 12 11 10 9 8 7 7 6 6 5 4 3 3 3 3 2 2
14 12 10 8 8 7 6 4 6 7 7 9 11 14 16 17 17 18 18 18 17 17 16 15 14 13 13 12 11 10 9 9 8 7 7 6 5 4 4 3 3 3 3
12 11 9 8 7 7 6 4 5 7 7 9 11 15 18 18 18 18 18 18 18 17 17 16 15 14 14 13 12 11 11 10 9 8 7 7 6 6 6 6 5 5 5
11 10 9 8 7 7 5 4 5 6 7 9 11 15 17 18 18 17 17 18 18 18 18 17 16 15 14 14 13 12 12 11 10 10 9 8 8 8 8 8 8 8 8
9 9 9 8 7 7 5 4 4 5 7 10 11 14 16 18 18 18 18 18 18 19 18 18 17 16 15 14 14 13 13 13 12 12 11 10 10 10 10 10 10 10 11
8 8 8 7 7 7 5 3 3 5 7 10 11 14 16 18 18 19 19 19 19 19 19 18 18 17 16 16 15 14 14 14 14 14 13 13 13 13 12 12 12 13 13
6 7 7 7 7 6 5 3 2 3 5 9 11 14 16 17 18 19 19 19 19 19 19 19 18 17 17 17 16 16 15 15 15 15 15 15 15 15 15 15 15 16 16
6 6 6 6 6 6 5 4 3 3 5 7 10 13 15 16 18 19 19 19 19 19 19 18 17 17 16 17 16 17 17 16 16 16 17 17 17 17 17 18 18 19 19
6 6 5 5 5 5 5 4 4 3 4 6 8 12 15 16 18 19 19 18 18 18 19 18 17 17 17 16 17 17 18 18 18 18 19 19 19 20 20 21 21 21 22
5 5 5 5 6 5 5 4 4 4 5 6 7 10 13 16 17 18 18 18 18 18 19 18 18 18 18 18 18 18 18 19 20 20 21 21 21 22 22 23 24 24 25
6 6 5 4 5 5 5 4 4 4 4 5 7 9 10 13 16 17 17 18 18 19 19 19 19 19 19 19 19 19 19 20 21 22 22 23 23 24 25 26 26 27 28
9 8 7 5 5 5 5 4 4 4 5 5 6 9 10 11 13 16 17 17 18 19 19 19 19 20 19 19 19 19 20 21 22 23 24 24 25 26 27 28 29 30 31
11 10 10 8 7 6 5 4 4 4 5 5 5 7 9 10 12 14 15 16 18 19 19 20 20 20 19 19 19 20 21 22 22 23 24 26 26 28 29 30 31 31 32
14 12 12 12 9 7 7 7 6 6 6 6 6 6 7 8 10 12 13 14 16 17 18 18 19 20 20 20 20 21 22 23 24 25 26 28 29 30 31 32 32 33 34
18 17 15 14 12 10 9 9 8 8 8 8 8 8 9 9 9 11 13 14 15 16 17 18 19 20 21 22 22 23 24 25 26 28 29 30 30 31 32 33 34 36 37
22 21 18 16 15 12 11 10 10 10 10 9 9 9 10 11 11 12 13 15 16 17 17 18 20 21 23 24 25 26 27 27 28 29 30 31 32 33 35 36 37 38 40
25 24 22 20 17 15 14 13 12 12 12 12 12 12 13 14 14 14 15 16 17 18 18 19 21 24 25 26 26 27 28 30 31 32 33 34 35 36 37 39 40 41 43
26 24 23 21 19 18 17 16 15 14 14 14 14 14 15 15 15 16 17 17 18 18 19 21 22 24 26 27 28 29 30 32 33 34 35 36 37 38 39 41 42 45 46
28 26 23 22 21 19 20 19 18 17 17 16 16 17 17 17 17 17 17 18 19 20 21 22 24 25 28 29 30 31 32 33 35 35 37 38 39 41 42 44 46 48 49
27 26 25 23 22 21 22 21 20 20 20 19 19 19 19 19 19 19 19 20 21 22 23 24 26 27 28 29 31 32 33 35 36 38 39 41 43 44 46 47 48 49 51
29 28 26 25 24 23 23 23 23 22 22 21 21 20 20 20 21 21 21 23 24 26 28 28 28 29 30 32 33 35 36 37 39 41 43 44 45 47 48 48 50 51 53
27 26 26 26 26 26 25 24 24 23 23 23 23 23 23 23 23 24 24 25 26 28 28 29 30 31 33 34 35 36 37 38 39 41 43 44 46 48 49 50 51 53 54
25 26 26 26 26 26 25 25 25 24 24 24 25 25 25 24 24 25 26 27 28 29 29 30 32 33 35 37 38 38 39 39 40 42 44 47 48 50 51 52 53 54 55
25 25 25 25 25 25 24 24 24 25 25 25 26 26 25 25 26 27 28 29 30 30 32 34 35 35 36 36 37 38 39 41 43 45 47 48 50 51 52 53 54 54 55
Wind_Direction
326 325 329 331 330 322 308 292 267 260 239 220 214 213 207 203 201 199 197 196 196 198 199 203 200 195 196 196 195 195 195 198 197 196 193 188 188 180 171 172 179 171 151
324 326 332 333 333 326 316 287 251 251 239 228 219 212 206 204 198 195 196 198 199 200 201 201 200 199 198 198 200 199 200 203 205 205 205 202 197 192 184 187 195 209 221
331 331 330 334 335 325 315 289 247 247 240 227 218 209 207 201 197 195 195 200 202 202 200 200 203 203 202 204 204 204 206 208 208 207 203 203 204 208 212 213 213 220 236
331 336 332 334 333 325 309 272 250 243 236 225 215 205 200 199 198 197 199 203 206 205 202 203 206 207 206 207 208 209 209 209 210 210 210 212 217 226 230 231 234 243 255
333 333 331 330 329 328 317 275 248 234 233 223 210 203 201 199 200 201 203 205 205 205 205 206 208 210 210 210 212 215 215 217 219 220 222 225 230 235 242 248 251 257 263
331 336 337 335 333 333 319 281 248 236 230 219 208 202 201 202 205 206 206 206 206 207 208 208 210 212 213 215 218 220 220 223 226 230 234 239 243 246 252 257 260 262 263
333 335 343 345 345 340 327 293 248 240 225 216 211 207 206 206 209 211 209 208 208 209 212 212 213 215 219 221 223 225 227 230 234 239 244 247 251 255 259 263 266 269 271
328 333 341 346 348 351 345 311 255 243 227 219 216 211 210 208 209 210 207 209 211 212 214 214 216 220 223 225 228 231 234 237 241 245 249 252 254 258 261 264 266 269 273
324 333 342 347 350 355 356 336 295 254 227 215 215 212 211 207 206 207 206 208 210 213 216 217 218 223 226 229 231 235 238 243 246 249 252 255 258 261 264 265 266 268 271
319 328 337 343 348 351 351 333 304 276 239 222 218 210 209 206 206 207 206 207 211 214 217 219 222 225 230 232 235 238 243 247 250 253 256 259 262 264 267 268 269 271 273
322 329 336 336 343 348 345 328 296 271 246 227 217 209 209 208 208 209 210 211 212 214 217 221 224 227 232 237 239 242 247 250 252 255 259 262 265 267 270 271 273 274 275
313 319 329 337 343 343 336 328 306 272 250 232 220 212 211 210 210 210 213 214 216 218 222 225 227 231 236 239 242 247 250 252 255 258 261 264 267 270 273 275 276 277 278
288 295 306 322 334 336 332 322 315 293 262 237 220 213 213 215 214 213 216 218 221 223 225 228 231 236 240 243 246 250 254 256 259 262 264 266 268 271 273 275 276 278 279
286 291 298 306 312 317 322 319 304 287 270 254 238 225 222 218 218 221 220 221 224 224 228 232 236 240 243 246 248 252 255 259 262 264 265 268 271 273 274 276 278 279 280
287 286 294 295 301 297 300 301 298 287 274 266 254 237 230 223 222 222 223 225 227 227 232 236 240 243 246 248 252 255 258 261 264 267 269 271 273 275 277 279 281 281 282
291 291 290 290 292 294 295 296 290 285 275 264 260 248 240 234 232 232 232 233 233 236 240 242 245 248 251 253 256 259 261 264 267 270 272 273 275 277 279 281 282 284 284
282 285 288 286 281 280 282 284 278 276 271 266 259 252 246 241 243 244 239 240 240 243 247 248 250 254 257 259 261 262 264 266 269 270 272 275 277 279 281 282 284 285 285
279 281 281 277 275 272 271 273 272 269 267 268 268 264 261 255 251 250 249 247 246 249 253 257 259 262 264 265 266 268 269 269 271 273 276 279 280 280 281 283 284 285 286
277 275 272 272 270 266 267 270 268 266 264 263 265 266 266 263 260 259 259 256 255 256 261 267 266 265 265 265 267 271 272 273 274 276 278 281 282 282 283 284 285 286 287
270 267 264 263 262 264 264 266 264 265 264 265 264 265 267 270 270 266 266 266 264 265 267 270 271 272 271 270 272 275 277 277 278 280 281 283 283 285 285 285 287 287 288
265 262 260 255 260 265 266 267 263 262 263 265 266 263 266 270 271 270 270 271 273 272 271 272 276 278 277 276 277 277 277 279 281 282 283 283 284 285 286 286 288 289 289
261 256 259 259 260 262 265 265 263 261 262 264 264 263 266 268 269 268 271 274 276 276 275 275 278 280 280 279 280 280 281 281 282 284 284 285 286 287 287 288 289 289 289
258 259 260 259 260 261 264 266 266 265 264 265 266 268 270 272 273 273 276 277 278 278 279 279 279 279 280 281 281 283 284 284 285 286 287 287 288 289 289 289 290 290 290
259 258 257 258 260 260 260 262 265 264 264 265 270 270 272 274 277 277 278 279 280 281 280 281 280 282 282 282 284 286 287 286 287 288 289 290 290 290 290 291 291 291 291
257 257 258 259 258 258 259 262 264 265 266 269 272 273 275 275 276 277 279 280 281 281 281 280 281 282 282 283 285 286 288 289 289 290 290 291 291 291 292 293 293 293 293
256 255 256 258 258 258 259 264 265 267 267 270 273 274 275 276 277 277 279 281 282 281 280 280 281 282 284 286 287 288 289 290 291 291 291 292 293 293 294 294 294 294 294